User: anonymous   Login
Location: Bangkok
(13.7500°N, 100.5170°E)
Time: 08:57:16
(UTC+07:00)
Language:

Cosmos 1898 Rocket - Orbit

View from above orbital plane
View from above orbital plane
View from above satellite
View from above satellite

Ground track
Ground track

The orbit data is extracted from the following two-line orbital elements,

1 18586U 87098B   16241.25354495  .00000045  00000-0  24311-4 0  9995
2 18586  74.0064 114.7258 0021941 241.7267 254.6545 14.36731801505291
Epoch (UTC): 28 August 2016 06:05:06
Eccentricity: 0.0021941
inclination: 74.0064°
perigee height: 753 km
apogee height: 785 km
right ascension of ascending node: 114.7258°
argument of perigee: 241.7267°
revolutions per day: 14.36731801
mean anomaly at epoch: 254.6545°
orbit number at epoch: 50529

The dashed part of the orbit path shows where the satellite is in the earth's shadow,  

DLR